Regional Weather Roundup
Issued by NWS

Home | Current Version | Previous Version | Text Only | Print | Product List | Glossary Off
Versions: 1 2 3 4 5 6 7 8 9 10 11 12 13 14 15 16 17 18 19 20 21 22 23 24 25 26 27 28 29 30 31 32 33 34 35 36 37 38 39 40 41 42 43 44 45 46 47 48 49 50

000
ASUS44 KMEG 020810
RWRTN
TENNESSEE HOURLY STATE WEATHER ROUNDUP
NATIONAL WEATHER SERVICE MEMPHIS TN
200 AM CST FRI DEC 02 2016

TNZ002-004-019-021-049-052-054-088>092-020900-
WEST TENNESSEE

CITY           SKY/WX    TMP DP  RH WIND       PRES   REMARKS
MEMPHIS INTL   CLEAR     40  29  64 CALM      30.17R
NWS MEMPHIS      N/A     33 N/A N/A MISG        N/A
JACKSON        CLEAR     30  28  92 CALM      30.18R
DYERSBURG      CLEAR    N/A N/A N/A CALM      30.19R
UNION CITY     CLEAR     28  28 100 CALM      30.16R
PARIS          CLEAR     32  27  80 CALM      30.15R
HUNTINGDON     CLEAR     30  28  93 CALM      30.16R
LEXINGTON      CLEAR     28  27  93 CALM      30.16R
$$

TNZ008-025-027-028-033-062-065-066-020900-
NORTH MIDDLE TENNESSEE

CITY           SKY/WX    TMP DP  RH WIND       PRES   REMARKS
NASHVILLE      CLEAR     32  27  81 S5        30.18R WCI  27
PORTLAND       CLEAR     28  28 100 CALM      30.16R
CLARKSVILLE    CLEAR     30  27  88 CALM      30.16R
SMYRNA         CLEAR     28  26  92 CALM      30.20R
CROSSVILLE     CLEAR     31  25  78 W5        30.13R WCI  26
$$

TNZ061-075-076-078-094-096-097-020900-
SOUTH MIDDLE TENNESSEE

CITY           SKY/WX    TMP DP  RH WIND       PRES   REMARKS
FAYETTEVILLE   CLEAR     36  28  75 CALM      30.17R
TULLAHOMA      CLEAR     27  23  86 CALM      30.17R
WINCHESTER     CLEAR     28  27  93 CALM      30.18R
MCMINNVILLE    CLEAR     28  28 100 CALM      30.16S
COLUMBIA       CLEAR    N/A N/A N/A CALM      30.17R
SHELBYVILLE    CLEAR     28  28 100 E3        30.19R
$$

TNZ017-018-042-046-047-020900-
NORTHEAST TENNESSEE

CITY           SKY/WX    TMP DP  RH WIND       PRES   REMARKS
TRI CITIES     CLEAR     29  27  92 CALM      30.10R
ELIZABETHTON   CLEAR     28  28 100 CALM      30.11
$$

TNZ012-013-036-069-073-074-020900-
CENTRAL EAST TENNESSEE

CITY           SKY/WX    TMP DP  RH WIND       PRES   REMARKS
KNOXVILLE      CLEAR     35  30  82 CALM      30.14R
OAK RIDGE      CLEAR     32  28  85 CALM      30.16R
DOWNTOWN KNOXV FOG       32  32 100 CALM      30.15R VSB 0
GATLINBURG     CLEAR     28  27  93 CALM      30.13R
MORRISTOWN     CLEAR     34  30  86 CALM      30.11R
JACKSBORO      CLEAR     28  28 100 CALM      30.17R
$$

TNZ083-085-099-020900-
SOUTHEAST TENNESSEE

CITY           SKY/WX    TMP DP  RH WIND       PRES   REMARKS
CHATTANOOGA    CLEAR     39  29  67 NW6       30.17R WCI  35
$$

SKY/WX REPORTED AS FAIR MEANS FEW OR NO CLOUDS BELOW
12 THOUSAND FEET.





USA.gov is the U.S. government's official web portal to all federal, state and local government web resources and services.